Weather History for London, United Kingdom

Change the Weather History Date:

Monday, April 1, 2013

  Actual Average Record
Temperature  
Mean Temperature 38 °F -  
Max Temperature 44 °F 56 °F 68 °F (1999)
Min Temperature 33 °F 41 °F 33 °F (2013)
Degree Days  
Heating Degree Days 26    
Moisture  
Dew Point 25 °F    
Average Humidity 62    
Maximum Humidity 81    
Minimum Humidity 32    
Precipitation  
Precipitation 0.00 in - - ()
Sea Level Pressure  
Sea Level Pressure 29.87 in    
Wind  
Wind Speed 10 mph ()    
Max Wind Speed 21 mph    
Max Gust Speed 25 mph    
Visibility 7.4 miles    
Events Rain , Snow    
Averages and records for this station are not official NWS values.
T = Trace of Precipitation, MM = Missing Value Source: Averaged Metar Reports

Daily Weather History Graph

Daily Weather History Graph

Search for Another Location

Airport:

Trip Planner

Search our weather history database for the weather conditions in past years. The results will help you decide how hot, cold, wet, or windy it might be!

Date:

Astronomy

Apr. 01, 2013 Rise Set
Actual Time 6:37 AM BST 7:35 PM BST
Civil Twilight 6:03 AM BST 8:09 PM BST
Nautical Twilight 5:22 AM BST 8:50 PM BST
Astronomical Twilight 4:38 AM BST 9:34 PM BST
Moon 12:59 AM BST (4/1) 9:37 AM BST (4/1)
Length of Visible Light 14h 06m
Length of Day
12h 58m
Waning Gibbous, 69% of the Moon is Illuminated
Apr 1
Waning Gibbous
Apr 3
Last Quarter
Apr 10
New
Apr 18
First Quarter
Apr 25
Full

Hourly Weather History & Observations

Time (BST) Temp. Windchill Dew Point Humidity Pressure Visibility Wind Dir Wind Speed Gust Speed Precip Events Conditions
12:20 AM 33.8 °F 27.0 °F 26.6 °F 75% 29.89 in 6.2 mi ENE 8.1 mph - N/A   Scattered Clouds
12:50 AM 34 °F - 27 °F 66% 29.91 in 12 mi NE 6.9 mph - -   Scattered Clouds
12:50 AM 33.8 °F 28.6 °F 26.6 °F 75% 29.89 in 6.2 mi ENE 5.8 mph - N/A   Mostly Cloudy
1:20 AM 33.8 °F 28.6 °F 26.6 °F 75% 29.89 in 6.2 mi ENE 5.8 mph - N/A   Mostly Cloudy
1:50 AM 33.8 °F 27.7 °F 28.4 °F 81% 29.89 in 6.2 mi ENE 6.9 mph - N/A Rain Light Rain
2:20 AM 33.8 °F 26.4 °F 28.4 °F 81% 29.89 in 6.2 mi ENE 9.2 mph - N/A Snow Snow Grains
2:50 AM 33.8 °F 26.4 °F 28.4 °F 81% 29.89 in 6.2 mi ENE 9.2 mph - N/A   Mostly Cloudy
3:20 AM 33.8 °F 26.4 °F 28.4 °F 81% 29.86 in 6.2 mi ENE 9.2 mph - N/A   Mostly Cloudy
3:50 AM 35 °F - 28 °F 67% 29.88 in 12 mi ENE 8.1 mph - -   Unknown Precipitation
3:50 AM 35.6 °F 28.6 °F 28.4 °F 75% 29.86 in 6.2 mi ENE 9.2 mph - N/A   Mostly Cloudy
4:20 AM 35.6 °F 28.6 °F 28.4 °F 75% 29.86 in 6.2 mi ENE 9.2 mph - N/A   Mostly Cloudy
4:50 AM 35.6 °F 28.6 °F 28.4 °F 75% 29.86 in 6.2 mi ENE 9.2 mph - N/A Snow Light Snow
5:20 AM 35.6 °F 28.0 °F 28.4 °F 75% 29.86 in 6.2 mi ENE 10.4 mph - N/A Snow Light Snow
5:50 AM 35.6 °F 28.6 °F 28.4 °F 75% 29.86 in 6.2 mi ENE 9.2 mph - N/A   Mostly Cloudy
6:20 AM 35.6 °F 29.2 °F 28.4 °F 75% 29.86 in 6.2 mi ENE 8.1 mph - N/A   Mostly Cloudy
6:50 AM 35 °F - 28 °F 68% 29.86 in 9 mi NE 8.1 mph - -  
6:50 AM 35.6 °F 29.9 °F 28.4 °F 75% 29.86 in 6.2 mi NE 6.9 mph - N/A   Mostly Cloudy
7:20 AM 35.6 °F 29.2 °F 28.4 °F 75% 29.86 in 6.2 mi ENE 8.1 mph - N/A   Mostly Cloudy
7:50 AM 35.6 °F 29.2 °F 28.4 °F 75% 29.86 in 6.2 mi ENE 8.1 mph - N/A   Mostly Cloudy
8:20 AM 35.6 °F 29.2 °F 28.4 °F 75% 29.86 in 6.2 mi ENE 8.1 mph - N/A   Mostly Cloudy
8:50 AM 35.6 °F 28.6 °F 28.4 °F 75% 29.86 in 6.2 mi ENE 9.2 mph - N/A   Mostly Cloudy
9:20 AM 37.4 °F 29.8 °F 28.4 °F 70% 29.86 in 6.2 mi ENE 11.5 mph - N/A   Mostly Cloudy
9:50 AM 37 °F - 27 °F 56% 29.87 in 7 mi ENE 10.4 mph - -   Mostly Cloudy
9:50 AM 37.4 °F 29.8 °F 26.6 °F 65% 29.86 in 6.2 mi ENE 11.5 mph - N/A   Mostly Cloudy
10:20 AM 37.4 °F 29.3 °F 26.6 °F 65% 29.86 in 6.2 mi ENE 12.7 mph - N/A   Mostly Cloudy
10:50 AM 37.4 °F 29.8 °F 26.6 °F 65% 29.86 in 6.2 mi ENE 11.5 mph - N/A   Mostly Cloudy
11:20 AM 37.4 °F 28.9 °F 23.0 °F 56% 29.86 in 6.2 mi East 13.8 mph 25.3 mph N/A   Mostly Cloudy
11:50 AM 39.2 °F 30.5 °F 23.0 °F 52% 29.86 in 6.2 mi East 16.1 mph - N/A   Mostly Cloudy
12:20 PM 39.2 °F 30.8 °F 24.8 °F 56% 29.86 in 6.2 mi East 15.0 mph - N/A   Mostly Cloudy
12:50 PM 38 °F - 24 °F 46% 29.88 in 11 mi East 19.6 mph - -   Mostly Cloudy
12:50 PM 39.2 °F 29.6 °F 24.8 °F 56% 29.86 in 6.2 mi East 19.6 mph - N/A   Mostly Cloudy
1:20 PM 39.2 °F 31.2 °F 23.0 °F 52% 29.86 in 6.2 mi East 13.8 mph - N/A   Mostly Cloudy
1:50 PM 39.2 °F 30.5 °F 24.8 °F 56% 29.86 in 6.2 mi ENE 16.1 mph - N/A   Mostly Cloudy
2:20 PM 41.0 °F 32.8 °F 24.8 °F 53% 29.86 in 6.2 mi ENE 16.1 mph - N/A   Mostly Cloudy
2:50 PM 42.8 °F 34.8 °F 23.0 °F 46% 29.86 in 6.2 mi ENE 17.3 mph - N/A   Mostly Cloudy
3:20 PM 44.6 °F 37.4 °F 23.0 °F 43% 29.86 in 6.2 mi ENE 16.1 mph - N/A   Scattered Clouds
3:50 PM 43 °F - 23 °F 32% 29.86 in 18 mi East 19.6 mph - -   Scattered Clouds
3:50 PM 42.8 °F 34.0 °F 21.2 °F 42% 29.86 in 6.2 mi East 20.7 mph - N/A   Scattered Clouds
4:20 PM 42.8 °F 34.8 °F 23.0 °F 46% 29.86 in 6.2 mi ENE 17.3 mph - N/A   Scattered Clouds
4:50 PM 42.8 °F 34.5 °F 23.0 °F 46% 29.86 in 6.2 mi ENE 18.4 mph - N/A   Partly Cloudy
5:20 PM 41.0 °F 31.9 °F 23.0 °F 49% 29.86 in 6.2 mi ENE 19.6 mph - N/A   Scattered Clouds
5:50 PM 41.0 °F 32.5 °F 23.0 °F 49% 29.86 in 6.2 mi East 17.3 mph - N/A   Partly Cloudy
6:20 PM 41.0 °F 32.8 °F 23.0 °F 49% 29.86 in 6.2 mi East 16.1 mph - N/A   Partly Cloudy
6:50 PM 40 °F - 22 °F 34% 29.86 in 16 mi ENE 16.1 mph - -  
6:50 PM 39.2 °F 30.5 °F 21.2 °F 49% 29.86 in 6.2 mi ENE 16.1 mph - N/A   Partly Cloudy
7:20 PM 39.2 °F 31.2 °F 21.2 °F 49% 29.86 in - East 13.8 mph - N/A   Clear
7:50 PM 37.4 °F 28.2 °F 21.2 °F 52% 29.86 in - ENE 16.1 mph - N/A   Clear
8:20 PM 37.4 °F 28.2 °F 21.2 °F 52% 29.86 in - ENE 16.1 mph - N/A   Clear
8:50 PM 37.4 °F 28.9 °F 23.0 °F 56% 29.86 in - ENE 13.8 mph - N/A   Clear
9:20 PM 35.6 °F 26.6 °F 23.0 °F 60% 29.89 in - ENE 13.8 mph - N/A   Clear
9:50 PM 35 °F - 24 °F 51% 29.89 in 19 mi ENE 11.5 mph - -  
9:50 PM 35.6 °F 27.1 °F 23.0 °F 60% 29.89 in - ENE 12.7 mph - N/A   Clear
10:20 PM 35.6 °F 27.5 °F 23.0 °F 60% 29.89 in - ENE 11.5 mph - N/A   Clear
10:50 PM 33.8 °F 26.4 °F 24.8 °F 70% 29.89 in - ENE 9.2 mph - N/A   Clear
11:20 PM 33.8 °F 25.3 °F 24.8 °F 70% 29.89 in - ENE 11.5 mph - N/A   Clear
11:50 PM 33.8 °F 25.8 °F 24.8 °F 70% 29.89 in - ENE 10.4 mph - N/A   Clear